{"data":{"norad_id":28874,"intl_designator":"2005-038A","name":"GPS BIIRM-1 (PRN 17)","alt_names":[],"object_type":"PAYLOAD","status":"ACTIVE","operator":null,"country":"US","launch_date":"2005-09-26","launch_site_code":"AFETR","launch_vehicle":null,"mission":null,"orbit_class":"UNKNOWN","rcs_meters":3.2653,"size_class":null,"mass_kg":null,"dimensions":null,"purposes":["earth_obs","nav"],"wikipedia_slug":null,"has_3d_model":false,"image_url":null,"decayed_at":null,"tle_current":{"epoch":"2026-09-19T03:57:41.867424Z","epoch_age_seconds":133588,"freshness":"FRESH","line1":"1 28874U 05038A   26262.16506791  .00000024  00000+0  00000+0 0  9992","line2":"2 28874  54.8082 269.3765 0128764 297.6514 120.4980  2.00559348153726","mean_motion":2.00559348,"eccentricity":0.0128764,"inclination_deg":54.8082,"raan_deg":269.3765,"arg_perigee_deg":297.6514,"mean_anomaly_deg":120.498,"bstar":0,"rev_number":15372,"period_min":717.99196315696,"perigee_km":19840.580067186,"apogee_km":20524.593069091,"semimajor_km":26560.723568139,"source":"CELESTRAK","updated_at":"2026-09-20T09:00:46.085191Z"}}}